Вернуться в каталог

CHINASAT 7

АктивенСвязьHEO
NORAD 24282·PAYLOAD·🇨🇳 China

Запущен Aug 18, 1996 с Xichang Satellite Launch Center

Loading…

Ближайшие Пролёты (ближайшие 24 часа)

TLE

УстаревающийSource: Space-Track

Эпоха: Aug 29, 2026, 07:19 UTC

1 24282U 96048A   26241.30536156 -.00000022  00000-0  00000+0 0  9993
2 24282  16.5842 180.7872 3505527 273.2911 302.5144  1.06658581119494

Отслеживайте CHINASAT 7 в реальном времени с AllMySat

Download on the App Store